Regional Weather Roundup
Issued by NWS

Home | Current Version | Previous Version | Graphics & Text | Print | Product List | Glossary On
Versions: 1 2 3 4 5 6 7 8 9 10 11 12 13 14 15 16 17 18 19 20 21 22 23 24 25 26 27 28 29 30 31 32 33 34 35 36 37 38 39 40 41 42 43 44 45 46 47 48 49 50
970
ASUS45 KBOU 280407
RWRCO

WEATHER ROUNDUP FOR COLORADO
NATIONAL WEATHER SERVICE DENVER/BOULDER CO
900 PM MST MON FEB 27 2017

NOTE: "FAIR" INDICATES FEW OR NO CLOUDS BELOW 12000 FEET WITH NO
SIGNIFICANT WEATHER AND/OR OBSTRUCTIONS TO VISIBILITY.

COZ001>005-013-030-031-280500-
...NORTHWEST COLORADO...

CITY           SKY/WX    TMP DP  RH WIND       PRES   REMARKS
CRAIG          SNOW      23  19  85 SW3       29.77S VSB 1/2
HAYDEN         CLOUDY    21  16  79 W12       29.74S WCI   9
MEEKER         LGT SNOW  25  20  81 MISG      29.73S
MOUNT WERNER   NOT AVBL
STEAMBOAT SPGS CLOUDY    20  19  95 SW9       29.73R VSB 1   WCI  10
WALDEN         NOT AVBL
$$

COZ006>008-011-280500-
...WEST CENTRAL VALLEYS...

CITY           SKY/WX    TMP DP  RH WIND       PRES   REMARKS
GRAND JUNCTION CLOUDY    41  28  60 SW9       29.70S
MONTROSE       CLOUDY    39  30  70 N3        29.74S
EAGLE          FLURRIES  36  25  64 SW24G30   29.68R
RIFLE          CLOUDY    41  23  48 SW8       29.67R
DELTA          FAIR      40  34  77 S5        29.73S
NUCLA          CLOUDY    37  32  81 CALM      29.79S
$$

COZ017>023-064>068-280500-
...SOUTHWEST COLORADO...

CITY           SKY/WX    TMP DP  RH WIND       PRES   REMARKS
DURANGO        LGT SNOW  32  29  88 CALM      29.84S FOG
CORTEZ         LGT RAIN  37  34  89 NW3       29.82S
PAGOSA SPRINGS LGT SNOW  30  30 100 S3        29.85S
TELLURIDE      LGT SNOW  29  23  78 W8        29.80S WCI  21
WOLF CREEK PAS CLOUDY    16  16 100 MISG      29.80S
$$

COZ009-010-012-014-032>034-037-058>063-280500-
...CENTRAL COLORADO...

CITY           SKY/WX    TMP DP  RH WIND       PRES   REMARKS
ASPEN          LGT SNOW  28  27  96 CALM      29.66S VSB 1
BUENA VISTA    CLOUDY    29  22  75 SE12      29.69R WCI  19
COPPER MTN     LGT SNOW  19  14  79 MISG      29.65R VSB 1
BERTHOUD PASS  LGT SNOW  10   0  61 W26G39    29.60R WCI -11
COTTONWOOD PAS LGT SNOW  27  23  86 NE3       29.67S
GUNNISON       LGT SNOW  27  25  92 SE5       29.74S FOG     WCI  22
KREMMLING      CLOUDY    32  23  69 N18       29.67R WCI  20
LEADVILLE      LGT SNOW  20  16  84 CALM      29.65R FOG
MONARCH PASS   CLOUDY    16  12  86 SW40G49   29.75S WCI  -7
SALIDA         CLOUDY    35  19  54 S9        29.77F WCI  27
SUNLIGHT       NOT AVBL
WILKERSON PASS CLOUDY    18  14  86 S8G16     29.69R WCI   7
$$

COZ069>075-280500-
...SAN LUIS VALLEY/SANGRE DE CRISTO MOUNTAINS...

CITY           SKY/WX    TMP DP  RH WIND       PRES   REMARKS
ALAMOSA        FAIR      28  24  85 S9        29.80S WCI  19
LA VETA PASS   CLOUDY    25  21  86 S30G51    29.77F WCI   8
SAGUACHE       FAIR      28  19  69 E14       29.76R WCI  17
$$

COZ035-036-038>040-280500-
...NORTHERN COLORADO FRONT RANGE...

CITY           SKY/WX    TMP DP  RH WIND       PRES   REMARKS
DENVER INTL AP MOCLDY    36  13  38 NE28      29.61R
DMNS CITY PARK   N/A     45  10  23 S9        29.60S
AURORA         MOCLDY    39   9  28 S10       29.62R
FRONT RANGE AP MOCLDY    41  10  28 S5        29.62R
ERIE MUNI ARPT FAIR      38  14  37 E9G16     29.61R
BOULDER MUN AP FAIR      43  18  36 CALM      29.59S
CENTENNIAL     MOCLDY    40  12  32 S12       29.62S
BROOMFIELD     MOCLDY    41  12  30 SE5       29.60S
FORT COLLINS   NOT AVBL
LONGMONT       NOT AVBL
$$

COZ041-046-047-076>085-087-088-280500-
...PIKES PEAK/PALMER DIVIDE AND SOUTHERN FOOTHILLS...

CITY           SKY/WX    TMP DP  RH WIND       PRES   REMARKS
COLO. SPRINGS  FAIR      38  12  34 SW9       29.68S
A. F. ACADEMY  FAIR      38  11  32 S10       29.66S
SCHRIEVER AFB  FAIR      32  10  39 SW5       29.68S WCI  27
ELLICOTT       FAIR     N/A N/A N/A SW12      29.67F
FALCON         FAIR      34  10  37 SW9       29.69R WCI  27
FORT CARSON    FAIR      39  11  31 SW8       29.67R
LIMON          FAIR     N/A N/A N/A W13       29.62F
MONUMENT HILL  FAIR      34  14  44 W13       29.69R WCI  25
TRINIDAD       FAIR      40  17  39 SE6       29.73F
$$

COZ042>045-048>051-090-091-280500-
...NORTHEAST COLORADO...

CITY           SKY/WX    TMP DP  RH WIND       PRES   REMARKS
GREELEY ARPT   FAIR      29  22  75 NE6       29.67R WCI  23
AKRON          FAIR      30  21  69 NW18      29.64R WCI  18
BURLINGTON     FAIR      48  16  27 SW22G31   29.62R
WRAY           NOT AVBL
STERLING       FAIR      32  27  80 N14       29.64R WCI  22
HOLYOKE        FAIR      37  30  75 NW21G26   29.58R
FORT MORGAN    FAIR      31  24  75 N18G24    29.64R WCI  19
$$

COZ086-089-092>099-280500-
...SOUTHEAST COLORADO...

CITY           SKY/WX    TMP DP  RH WIND       PRES   REMARKS
PUEBLO         FAIR      46  18  32 W10       29.66F
LA JUNTA       FAIR      48  15  26 SW17      29.69S
LAMAR          FAIR      51  13  21 W16       29.67R
SPRINGFIELD      N/A     39  12  33 W6        29.74S
$$




USA.gov is the U.S. government's official web portal to all federal, state and local government web resources and services.